SCP
0 0 0 0 0 0 0 0 0 0 0 0 0 0 0 0 0 0 0 0 0 0 0 0 0 0 0 0 0 0 0 0 0 0 0 0 0 0
0 0 0 0 0 0 0 0 0 0 0 0 0 0 0 0 0 0 0 0 0 0 0 0 0 0 0 0 0 0 0 0 0 0 0 0 0 0
0 0 0 0 0 0 0 0 0 0 0 0 0 0 0 0 0 0 0 0 0 0 0 0 0 0 0 0 0 0 0 0 0 0 0 0 0 0
0 0 0 0 0 0 0 0 0 0 0 0 0 0 -0 0 0 0 0 0 0 0 0 0 0 0 0 0 0 0 0 0 0 0 0 0 0 0
0 0 0 0 0 0 0 0 0 0 0 0 0 0 0 -0 0 0 0 0 0 0 0 0 0 0 0 0 0 0 0 0 0 0 0 0 0 0
0 0 0 0 0 0 0 0 0 0 0 0 0 0 0 -0 0 0 0 0 0 0 0 0 0 0 0 0 0 0 0 0 0 0 0 0 0 0
0 0 0 0 0 0 0 0 0 0 0 0 0 0 0 0 0 0 0 0 0 0 0 0 0 0 0 0 0 0 0 0 0 0 0 0 0 0
0 0 0 0 0 0 0 0 0 0 0 0 0 0 0 0 0 0 0 0 0 0 0 0 0 0 0 0 0 0 0 0 0 0 0 0 0 0
0 0 0 0 0 0 0 0 0 0 0 0 0 0 0 0 0 0 0 0 0 0 0 0 0 0 0 0 0 0 0 0 0 0 0 0 0 0
0 0 0 0 0 0 0 0 0 0 0 0 0 0 0 0 0 0 0 0 0 0 0 0 0 0 0 0 0 0 0 0 0 0 0 0 0 0
0 0 0 0 0 0 0 0 0 0 0 0 0 0 0 0 0 0 0 0 0 0 0 0 0 0 0 0 0 0 0 0 0 0 0 0 0 0
0 0 0 0 0 0 0 0 0 0 0 0 0 0 0 0 0 0 0 0 0 -0 -0 0 0 0 0 0 0 0 0 0 0 0 0 0 0 0
0 0 0 0 0 0 0 0 0 0 0 0 0 0 0 0 0 0 0 0 0 0 -0 0 0 0 0 0 0 0 0 0 0 0 0 0 0 0
0 0 0 0 0 0 0 0 0 0 0 0 0 0 0 0 0 0 0 0 0 0 0 0 0 0 0 0 0 0 0 0 0 0 0 0 0 0
0 0 0 0 0 0 0 0 0 0 0 0 0 0 0 0 0 0 0 0 0 0 0 0 0 0 0 0 0 0 0 0 0 0 0 0 0 0
0 0 0 0 0 0 0 0 0 0 0 0 0 0 0 0 0 0 0 0 0 0 0 0 0 0 0 0 0 0 0 0 0 0 0 0 0 0
0 0 0 0 0 0 0 0 0 0 0 0 0 0 0 0 0 0 0 0 0 0 0 0 0 0 0 0 0 0 0 0 0 0 0 0 0 0
0 0 0 0 0 0 0 0 0 0 0 0 0 0 0 0 0 0 0 0 0 0 0 0 0 0 0 0 0 0 0 0 0 0 0 0 0 0
0 0 0 0 0 0 0 0 0 0 0 0 0 0 0 0 0 0 0 0 0 0 0 0 0 0 0 0 0 0 0 0 0 0 0 0 0 0
0 0 0 0 0 0 0 0 0 0 0 0 0 0 0 0 0 0 0 0 0 0 0 0 0 0 0 0 0 0 0 0 0 0 0 0 0 0
0 0 0 0 0 0 0 0 0 0 0 0 0 0 0 0 0 0 0 0 0 0 0 0 0 0 0 0 0 0 0 0 0 0 0 0 0 0
0 0 0 0 0 0 0 0 0 0 0 0 0 0 0 0 0 0 0 0 0 0 0 0 0 0 0 0 0 0 0 0 0 0 0 0 0 0
0 0 0 0 0 0 0 0 0 0 0 0 0 0 0 0 0 0 0 0 0 0 0 0 0 0 0 0 0 0 0 0 0 0 0 0 0 0
Wind_Speed
3 3 3 3 3 3 3 3 4 5 5 4 2 2 2 3 6 5 5 10 13 13 13 13 13 13 13 14 14 14 14 13 13 12 12 12 12 12
3 3 4 3 3 3 4 4 4 5 6 4 4 4 5 6 9 6 6 12 13 13 14 14 14 13 14 14 14 14 14 13 13 13 13 12 12 12
4 4 5 5 4 4 4 4 4 4 7 6 5 4 5 6 7 6 6 6 7 12 14 14 14 14 13 14 14 14 14 14 14 13 13 13 13 13
5 5 6 5 5 5 4 5 5 5 6 9 6 5 6 6 7 8 7 7 6 11 14 14 14 14 14 14 14 14 14 14 14 14 14 14 14 14
5 6 6 6 6 5 6 6 6 6 5 7 8 5 5 5 6 8 7 6 7 9 12 13 13 14 14 15 15 15 15 14 15 14 14 14 14 15
6 7 7 6 7 7 7 7 6 6 6 6 7 6 5 5 5 6 7 5 6 7 9 10 12 14 15 15 16 15 15 15 15 15 15 15 15 15
6 7 7 9 11 9 8 6 6 6 6 6 7 7 6 5 5 5 7 6 6 6 6 6 6 6 8 12 15 15 15 15 16 16 16 16 16 16
7 7 7 9 11 13 15 14 12 9 7 7 7 8 8 7 6 7 7 7 7 4 5 7 5 7 7 6 13 16 16 17 17 17 17 17 17 17
6 7 7 7 10 7 11 14 13 15 15 10 10 10 9 8 8 9 8 8 8 5 5 8 6 8 7 9 16 17 18 18 17 17 17 17 17 17
6 7 7 7 8 9 8 8 8 9 10 8 8 9 9 9 9 10 9 8 8 6 6 8 7 7 8 7 14 17 17 18 18 18 18 18 18 18
7 7 7 7 12 14 10 8 9 8 11 14 14 14 16 15 12 7 6 7 8 6 4 6 6 7 7 7 9 14 15 16 17 17 17 17 17 16
6 6 10 11 14 15 9 8 9 9 8 9 10 11 10 10 13 8 7 7 7 6 4 4 5 4 6 5 5 6 8 12 15 15 15 15 14 8
6 5 6 14 15 15 13 8 11 11 7 6 7 7 6 6 6 6 6 7 7 8 5 4 5 5 6 6 5 5 5 6 6 8 11 13 13 10
6 6 7 14 16 16 12 12 15 13 5 5 5 6 6 6 6 6 7 8 8 9 8 6 6 6 7 7 7 5 5 5 5 6 5 9 11 12
7 12 14 15 14 10 12 15 12 6 5 5 6 6 6 6 6 6 7 7 7 8 8 8 7 7 7 8 7 6 6 5 5 5 4 5 5 5
8 10 13 13 10 10 10 8 5 5 6 6 6 6 6 5 6 5 6 5 5 6 6 7 7 8 7 8 7 7 6 5 4 4 5 5 4 4
7 4 4 4 5 5 5 5 5 5 5 5 6 6 6 6 5 4 4 4 5 6 6 5 5 6 7 7 7 7 6 6 5 5 4 5 5 5
8 4 4 5 5 6 6 6 5 5 5 5 6 6 6 6 6 5 4 5 5 6 6 5 4 4 4 5 7 7 6 5 4 4 4 5 6 5
5 4 4 5 5 6 6 6 6 5 5 5 5 5 5 5 5 5 5 5 5 6 5 4 4 4 6 7 5 6 5 5 4 4 4 4 6 6
4 4 5 5 5 6 6 6 6 5 5 5 5 5 5 5 5 5 5 5 6 6 6 5 4 5 6 7 6 6 8 6 5 5 4 3 4 5
5 5 5 5 6 6 6 6 6 6 6 5 5 5 5 5 5 5 5 8 7 6 6 7 7 8 5 4 5 6 5 7 7 5 4 3 3 3
5 6 5 6 6 6 6 6 6 6 6 6 6 5 5 5 6 7 6 6 6 6 7 7 5 4 3 5 6 7 6 5 6 7 7 6 4 4
6 6 6 6 6 5 5 6 7 6 6 6 6 6 6 6 6 6 6 7 7 7 7 6 4 4 5 5 6 5 6 5 4 3 3 4 5 6
Wind_Direction
279 274 275 277 267 263 259 246 253 271 272 263 269 267 284 288 295 287 278 290 296 295 293 294 293 290 289 287 287 286 285 285 281 275 274 275 275 274
285 286 279 274 267 265 259 254 247 251 266 262 268 279 285 291 294 291 277 290 290 291 292 290 289 287 284 282 283 282 282 280 279 274 270 271 272 273
288 287 284 280 275 267 264 260 256 253 266 275 268 272 272 279 287 278 276 268 268 282 286 286 285 284 283 282 282 279 280 279 276 274 270 268 269 270
279 277 281 283 282 273 266 264 260 256 259 274 277 264 262 264 273 275 278 280 270 279 283 283 282 282 281 281 280 279 277 276 274 274 271 266 266 267
271 270 274 275 279 280 273 269 264 264 258 265 275 269 264 261 270 276 271 270 276 275 279 279 279 281 282 280 280 279 275 274 272 270 270 265 264 264
274 269 268 268 270 275 274 269 266 262 259 262 272 275 267 258 255 270 276 266 272 276 273 276 279 281 280 280 280 278 273 271 270 267 267 265 262 262
283 277 272 273 275 277 278 273 270 266 263 264 269 277 274 267 261 265 272 276 269 260 262 266 269 266 268 272 276 270 268 267 267 266 264 265 262 262
287 287 282 281 283 285 285 286 281 275 269 265 269 268 272 270 268 267 267 272 274 245 252 266 261 263 261 256 270 268 265 265 265 264 262 263 262 260
286 287 288 288 294 289 286 285 284 278 274 270 266 264 267 267 268 267 261 261 267 265 267 270 259 262 263 269 274 271 266 264 263 262 262 261 261 260
281 281 283 286 284 287 281 282 281 278 276 274 266 266 267 264 259 262 265 269 272 263 253 267 263 262 269 266 272 271 267 263 261 260 259 259 260 259
282 284 286 283 287 291 288 284 285 282 284 281 279 281 282 283 279 275 269 267 272 269 247 256 268 276 271 264 267 271 272 267 265 260 258 258 258 257
286 283 286 291 293 292 286 279 282 283 282 286 286 285 283 281 282 269 261 261 269 273 247 245 266 276 278 262 260 269 273 272 266 262 260 258 257 254
289 288 287 293 294 294 294 285 284 292 287 285 285 281 277 270 265 259 253 253 258 263 264 256 265 262 261 279 279 270 264 269 262 256 257 257 255 253
286 285 285 292 294 296 297 295 297 301 293 288 287 282 279 276 271 266 264 259 256 263 267 259 261 259 262 270 275 277 271 264 259 254 246 251 253 254
286 290 294 296 299 300 299 301 303 298 289 282 281 281 276 276 278 276 273 269 267 265 263 259 256 257 256 262 269 272 279 275 256 250 248 247 244 239
290 291 296 301 304 304 302 300 295 289 288 283 285 285 287 281 275 274 277 274 275 278 267 261 259 255 258 263 264 268 266 261 256 254 251 251 246 238
302 296 296 299 299 298 293 290 288 291 289 286 286 287 287 286 283 282 278 278 273 277 282 279 269 262 259 263 265 264 266 263 257 255 254 256 252 242
312 305 297 296 293 297 296 292 288 285 285 286 285 284 283 284 286 285 276 269 270 272 273 278 285 289 282 269 252 260 262 257 258 255 246 248 257 251
309 297 295 296 296 296 296 292 289 287 286 286 286 285 284 283 281 281 277 274 274 273 275 279 275 269 275 280 274 249 256 262 261 255 245 242 252 259
297 293 292 294 294 294 295 296 295 294 291 288 286 283 282 280 278 278 276 274 274 278 279 275 263 252 252 266 276 278 265 257 253 253 252 258 259 269
295 289 287 289 290 291 291 291 292 290 289 288 287 285 282 279 276 274 275 279 279 275 272 271 267 273 272 271 274 277 274 272 264 251 237 245 261 264
293 290 289 288 288 287 288 290 290 291 290 286 285 285 283 278 275 274 272 272 272 270 272 276 278 274 257 254 265 276 285 295 291 277 258 246 234 230
293 292 291 291 288 286 285 286 285 285 285 285 283 281 281 279 275 272 272 269 271 274 277 279 277 265 259 255 262 271 277 285 290 289 282 277 274 270